STARLETTE 1 07646U 75010A 12034.93409615 -.00000122 +00000-0 +17396-4 0 08493 2 07646 049.8260 295.1758 0205418 009.6198 350.8536 13.82278985868717 LAGEOS 1 1 08820U 76039A 12034.70379828 +.00000007 +00000-0 +10000-3 0 02508 2 08820 109.8134 181.7810 0044969 345.4856 014.4398 06.38664687578440 EGS (AJISAI) 1 16908U 86061A 12034.91879083 -.00000083 +00000-0 +10000-3 0 07387 2 16908 050.0087 081.9716 0011636 145.6791 214.4799 12.44468700827355 LAGEOS 2 1 22195U 92070B 12034.20485012 -.00000009 +00000-0 +10000-3 0 04662 2 22195 052.6784 343.4895 0137809 052.6650 308.6381 06.47293821455882 STELLA 1 22824U 93061B 12034.77353601 +.00000097 +00000-0 +57421-4 0 00854 2 22824 098.5882 335.3134 0006781 013.6256 346.5108 14.27303846956350 WESTPAC 1 25398U 98043E 12034.94984037 -.00000014 +00000-0 +12062-4 0 03192 2 25398 098.3566 018.8942 0000662 329.0645 031.0496 14.22706230704765 GRACE 1 1 27391U 02012A 12034.71364525 +.00003631 +00000-0 +95659-4 0 00037 2 27391 089.0085 233.8039 0013611 333.0287 027.0286 15.38135111552837 GRACE 2 1 27392U 02012B 12034.71334282 +.00003575 +00000-0 +94121-4 0 00035 2 27392 089.0079 233.8295 0014441 333.9162 026.1369 15.38132063552833 GOCE 1 34602U 09013A 12035.56501456 -.00004082 19081-5 -48183-5 0 5570 2 34602 096.6114 058.8762 0005426 037.0402 323.1201 16.05981537169051